Wind_Speed
9 10 11 12 14 15 17 18 20 21 23 24 25 26 27 28 29 30 31 32 33 35 37 39 41 42 43 43 43 42 41 40 38 36 34 32 30 28 26 25 25 25 26
10 11 13 15 16 18 20 22 23 25 26 28 29 31 32 32 33 34 35 35 36 36 37 38 39 41 43 45 46 46 46 45 43 41 39 37 35 33 30 29 27 27 27
12 14 16 18 20 22 24 26 28 29 31 32 34 35 36 37 38 38 39 40 40 40 40 41 41 41 42 44 46 47 49 49 48 47 45 43 40 38 35 33 31 30 29
16 18 20 22 24 26 28 30 32 33 35 36 37 39 40 41 42 43 44 44 45 45 45 45 45 45 45 45 46 47 49 50 51 51 50 48 46 43 41 38 35 33 32
20 23 25 26 28 30 32 34 36 37 39 40 42 43 44 45 47 47 48 49 49 50 50 50 50 50 50 50 49 49 49 50 51 53 54 53 51 49 46 43 40 38 36
25 27 29 30 32 34 36 38 39 41 43 45 46 48 49 50 51 52 53 54 54 54 55 55 55 55 55 55 54 54 53 52 52 53 55 56 56 54 52 49 46 43 40
29 30 32 34 36 37 39 41 43 45 47 49 51 53 55 56 57 58 59 60 60 61 60 60 60 60 60 59 59 59 58 57 56 55 55 57 58 58 57 55 52 49 45
31 33 35 36 38 40 43 45 47 50 52 54 56 58 60 62 63 65 66 67 67 67 67 67 66 66 65 64 64 64 63 62 61 60 59 58 58 59 59 59 57 54 51
33 35 37 39 42 44 47 49 52 54 57 59 62 64 67 69 71 72 73 74 75 75 75 75 74 73 72 70 69 68 68 67 67 65 64 63 61 61 61 61 61 59 56
34 37 39 42 45 48 50 53 56 59 62 65 68 71 73 75 77 79 80 81 81 82 82 81 81 80 79 77 76 74 73 72 72 71 69 68 66 64 63 63 63 62 61
36 39 42 45 48 51 54 57 60 63 67 70 73 75 78 80 82 84 85 87 87 87 87 87 86 85 84 83 82 81 79 78 77 76 75 73 71 69 67 66 65 65 64
38 41 45 48 51 54 57 60 64 67 70 73 76 79 82 85 87 89 90 91 92 92 92 92 92 91 90 89 87 86 85 84 82 81 79 78 77 75 73 70 68 67 66
41 44 47 51 54 57 60 64 67 71 74 77 80 84 87 90 92 93 94 94 94 94 94 94 94 95 94 94 92 91 90 89 88 86 84 83 82 80 78 75 73 71 69
43 47 50 53 57 60 64 67 71 74 78 81 85 89 92 93 95 95 94 94 92 91 91 90 90 91 93 94 94 94 94 93 92 91 89 87 86 85 83 81 78 76 73
46 49 53 56 59 63 67 71 74 79 83 87 91 93 95 95 94 92 89 86 84 83 82 82 82 82 84 86 89 92 94 95 96 96 94 93 91 90 88 86 84 81 78
48 52 55 58 62 66 70 74 78 83 87 91 93 94 93 91 87 83 80 77 75 74 74 73 73 74 75 76 79 83 87 91 94 96 97 96 95 94 93 91 89 86 84
50 54 57 61 65 69 73 77 81 86 89 92 92 90 87 82 78 74 72 71 69 68 67 67 66 67 67 68 71 74 79 83 88 93 96 98 98 98 97 96 94 91 89
52 55 59 64 68 72 76 80 84 88 90 90 88 84 79 75 72 70 68 66 65 64 63 62 61 61 61 62 63 65 70 75 80 86 91 96 99 101 101 100 98 96 93
53 57 61 66 70 74 78 82 86 88 89 87 82 77 73 71 69 67 65 64 62 61 60 59 59 59 58 58 58 59 62 67 72 78 85 91 97 100 103 104 102 100 98
56 60 64 67 71 75 79 83 86 87 86 82 77 73 70 68 66 64 63 61 60 59 59 58 58 57 57 56 55 54 56 59 64 70 77 85 92 98 102 105 106 105 103
58 62 65 69 73 76 80 83 85 85 82 78 74 70 68 66 64 62 61 60 60 59 59 59 58 56 55 55 54 52 52 54 58 63 69 77 86 93 99 104 107 108 107
59 63 67 70 74 77 81 83 84 82 78 74 70 68 66 64 62 61 61 61 61 60 60 59 57 55 54 54 53 52 50 50 54 57 62 69 78 86 94 101 106 110 110
61 64 68 71 74 78 81 82 82 79 76 71 68 65 64 63 61 61 62 62 61 61 60 58 57 56 54 53 53 52 51 50 50 53 57 62 69 78 87 95 103 108 111
62 65 68 72 75 78 80 81 79 76 72 69 65 64 63 62 61 62 63 62 62 61 60 58 57 56 54 52 52 52 52 51 50 49 53 56 62 70 79 88 97 105 110
63 66 69 72 75 78 79 80 77 74 70 67 64 63 62 61 62 63 63 62 61 60 59 57 55 52 50 48 47 48 50 51 50 49 49 53 57 63 71 81 90 99 107
63 66 69 72 75 77 78 78 75 72 68 65 63 62 61 61 62 63 63 62 60 59 57 55 52 48 45 42 41 43 46 48 50 48 47 49 53 57 64 73 82 92 101
Wind_Direction
326 322 317 313 311 308 305 303 300 299 297 295 293 291 289 286 284 282 280 278 275 271 268 266 263 260 258 255 254 253 253 253 253 254 255 255 254 252 248 244 240 237 235
326 320 316 312 309 307 304 303 301 299 297 296 294 292 290 287 285 284 282 279 277 275 272 270 266 264 261 258 255 253 251 251 251 251 252 253 252 251 249 245 241 238 236
321 317 313 310 308 306 304 302 301 299 297 295 293 291 289 287 285 282 280 279 277 275 273 271 269 266 264 261 258 255 252 250 249 249 249 249 250 249 248 246 242 239 236
318 314 311 309 307 306 304 302 300 298 297 295 293 291 289 287 284 282 280 278 276 274 272 270 269 267 265 263 261 258 254 251 249 248 247 247 247 247 246 245 242 239 236
314 311 310 309 308 306 304 302 301 299 297 295 293 292 290 288 285 283 281 279 276 274 272 270 268 266 264 263 261 259 257 254 251 248 246 246 245 245 244 244 242 240 237
312 311 310 309 308 306 304 302 301 300 298 297 295 293 291 289 287 285 283 280 278 275 272 270 267 265 263 261 260 258 257 255 253 250 247 246 244 243 243 242 242 240 238
311 311 310 308 307 306 305 304 303 302 300 298 297 295 293 291 289 287 285 282 280 277 274 272 269 266 263 261 259 257 256 254 253 251 249 246 244 243 242 241 240 239 237
312 312 311 310 309 308 307 306 305 304 302 300 299 297 295 293 291 289 287 284 282 279 277 274 271 268 264 262 259 257 255 253 251 250 249 247 245 243 242 240 239 238 237
314 313 313 313 312 311 310 308 307 306 304 303 301 300 298 296 294 291 289 286 284 281 278 276 273 270 266 263 260 257 255 252 250 248 247 246 245 243 241 240 239 238 237
316 315 315 314 313 312 311 310 309 308 306 305 303 301 299 297 294 292 290 287 285 282 280 277 274 271 268 265 262 258 255 252 250 248 246 245 244 242 241 240 238 238 236
318 317 316 315 314 313 312 311 309 308 306 305 303 301 299 296 294 292 290 288 286 283 281 278 275 272 269 266 263 259 256 253 250 248 246 244 242 241 240 239 238 237 236
319 317 316 316 315 314 313 311 309 308 306 304 302 301 299 297 295 293 291 289 287 284 281 279 276 273 270 266 263 260 257 253 250 247 245 243 241 240 238 237 236 236 235
319 318 318 317 316 314 313 311 310 308 306 305 304 302 300 298 296 294 292 290 288 286 284 281 278 275 271 268 264 260 257 254 250 247 244 242 240 239 237 236 235 234 234
320 320 319 317 316 314 313 312 310 309 308 307 305 303 302 301 299 297 295 293 291 288 285 282 279 276 273 269 266 262 258 254 250 247 244 241 239 238 236 235 233 233 232
322 321 319 317 316 315 314 313 312 312 310 309 307 306 305 304 302 301 299 296 293 290 287 284 280 276 273 269 266 263 259 255 251 247 244 240 238 236 235 233 232 231 230
322 321 319 318 317 317 316 316 315 314 312 311 310 309 308 307 305 304 302 299 296 293 290 286 282 278 273 269 265 261 258 254 251 247 244 240 237 235 233 232 231 229 229
322 321 320 320 320 319 318 318 316 315 314 313 312 312 311 310 308 307 305 302 299 296 293 289 285 281 276 271 266 261 256 252 249 246 243 239 236 234 232 230 229 228 227
323 322 322 322 322 321 320 319 318 317 316 316 315 315 314 313 312 310 308 306 303 300 296 292 288 284 279 274 268 263 257 252 248 244 241 238 235 232 230 229 227 226 225
324 324 324 324 324 323 322 321 320 319 319 319 319 318 318 317 316 314 312 309 306 303 300 296 291 287 281 276 270 265 259 253 248 243 239 236 233 230 228 227 226 225 224
326 326 326 326 325 324 323 323 322 322 322 322 322 321 321 320 319 317 315 312 309 306 302 298 294 288 283 277 271 266 260 255 250 244 239 235 232 229 226 225 224 223 222
328 328 327 327 326 326 325 324 324 324 324 324 324 324 323 322 321 320 318 315 311 308 304 300 295 290 284 278 272 266 260 256 251 246 240 235 231 228 225 223 222 221 220
330 329 329 328 327 327 326 326 326 326 326 327 326 326 326 325 324 323 320 317 314 311 307 303 298 292 285 278 272 265 258 254 252 247 242 237 232 228 224 221 220 219 218
331 330 330 329 328 328 328 328 328 328 329 329 329 328 328 327 326 325 322 320 317 314 310 306 300 293 287 279 272 265 257 250 249 247 243 238 233 228 225 221 219 217 216
332 331 331 330 330 330 330 330 330 331 331 331 331 331 330 330 329 327 325 323 321 318 315 310 304 297 289 280 271 264 256 249 245 243 242 239 234 229 225 222 219 217 215
333 332 332 332 332 332 331 332 332 333 333 333 333 333 333 332 331 331 329 327 326 323 320 317 311 304 295 284 272 262 254 247 242 239 238 238 234 230 226 223 219 217 215
334 334 334 333 333 333 333 334 335 335 335 336 336 336 335 335 335 335 334 332 331 329 327 324 320 312 302 289 275 261 251 244 239 236 234 235 234 230 226 223 220 217 216
Height
5880 5878 5877 5876 5874 5872 5871 5869 5867 5866 5864 5862 5860 5859 5857 5855 5853 5852 5850 5848 5847 5846 5845 5844 5844 5844 5844 5844 5844 5845 5846 5847 5848 5849 5850 5852 5853 5855 5856 5858 5859 5861 5862
5879 5877 5876 5874 5872 5870 5868 5866 5864 5862 5860 5858 5856 5854 5852 5850 5848 5846 5844 5842 5841 5840 5838 5837 5836 5836 5836 5836 5837 5837 5838 5839 5841 5842 5843 5845 5847 5848 5850 5852 5854 5856 5857
5877 5875 5873 5871 5869 5867 5865 5862 5860 5858 5855 5852 5850 5847 5845 5843 5841 5839 5837 5835 5834 5832 5831 5830 5829 5828 5827 5827 5828 5828 5829 5831 5832 5834 5835 5837 5839 5841 5843 5846 5848 5850 5852
5875 5872 5870 5868 5865 5863 5860 5857 5855 5852 5849 5846 5843 5840 5837 5835 5832 5830 5828 5826 5825 5823 5822 5821 5820 5819 5819 5818 5818 5819 5820 5821 5823 5824 5826 5828 5830 5833 5835 5838 5841 5843 5846
5872 5869 5866 5864 5861 5858 5855 5852 5848 5845 5842 5838 5835 5832 5828 5825 5823 5820 5817 5815 5813 5812 5811 5810 5809 5808 5808 5808 5808 5809 5810 5811 5813 5814 5816 5818 5821 5824 5826 5829 5832 5836 5839
5868 5865 5862 5859 5856 5852 5849 5845 5841 5837 5833 5829 5826 5822 5818 5815 5811 5808 5805 5803 5801 5799 5798 5797 5796 5796 5796 5796 5796 5797 5799 5800 5801 5803 5805 5807 5810 5813 5816 5820 5823 5827 5830
5863 5860 5857 5853 5850 5846 5842 5838 5833 5829 5824 5820 5815 5811 5806 5802 5798 5795 5792 5789 5786 5784 5783 5782 5781 5781 5781 5781 5782 5783 5785 5787 5789 5791 5793 5795 5798 5802 5805 5809 5813 5817 5821
5859 5855 5851 5847 5843 5839 5834 5829 5824 5819 5814 5809 5803 5798 5793 5788 5783 5779 5775 5772 5769 5767 5765 5764 5763 5764 5764 5765 5766 5768 5770 5772 5774 5777 5779 5782 5786 5790 5793 5798 5802 5807 5811
5854 5849 5845 5840 5835 5830 5825 5820 5814 5808 5802 5796 5790 5784 5778 5772 5766 5761 5756 5752 5749 5746 5744 5743 5743 5743 5744 5745 5747 5750 5752 5755 5757 5761 5764 5768 5772 5776 5780 5785 5790 5795 5800
5848 5844 5838 5833 5828 5822 5816 5810 5803 5796 5789 5783 5776 5769 5762 5755 5748 5742 5736 5731 5726 5723 5721 5719 5719 5720 5721 5723 5725 5729 5732 5735 5739 5743 5747 5751 5757 5761 5766 5771 5776 5782 5787
5842 5837 5832 5826 5820 5814 5807 5800 5792 5785 5777 5769 5762 5753 5745 5737 5729 5721 5714 5708 5702 5697 5694 5692 5692 5692 5694 5697 5700 5704 5708 5713 5718 5723 5728 5733 5739 5745 5751 5756 5762 5768 5774
5836 5831 5825 5818 5811 5804 5797 5789 5781 5773 5765 5756 5746 5737 5727 5717 5708 5699 5690 5682 5676 5670 5666 5663 5662 5663 5665 5668 5672 5676 5681 5687 5694 5700 5707 5713 5719 5726 5733 5740 5747 5753 5760
5830 5823 5817 5810 5802 5795 5787 5778 5770 5760 5750 5740 5729 5717 5706 5695 5684 5674 5664 5656 5648 5642 5636 5633 5631 5630 5632 5635 5640 5645 5651 5658 5666 5674 5683 5690 5697 5705 5714 5722 5730 5737 5744
5823 5816 5808 5801 5793 5785 5776 5767 5756 5745 5734 5722 5709 5696 5683 5670 5658 5647 5636 5627 5619 5612 5607 5603 5600 5599 5599 5601 5605 5611 5619 5627 5636 5645 5656 5665 5674 5683 5692 5701 5710 5719 5727
5815 5808 5800 5792 5783 5774 5764 5753 5741 5729 5716 5702 5687 5672 5658 5644 5631 5620 5609 5599 5591 5584 5578 5574 5570 5568 5568 5569 5571 5576 5584 5592 5603 5613 5626 5638 5648 5658 5668 5679 5689 5699 5709
5807 5799 5791 5782 5773 5762 5751 5739 5726 5712 5697 5681 5665 5649 5634 5621 5608 5596 5585 5575 5567 5559 5553 5547 5543 5541 5539 5539 5541 5543 5549 5557 5568 5579 5593 5607 5619 5631 5643 5655 5666 5678 5690
5800 5791 5782 5772 5761 5749 5737 5723 5709 5694 5678 5661 5645 5628 5614 5600 5587 5576 5565 5555 5545 5537 5530 5524 5519 5516 5513 5513 5513 5515 5519 5525 5533 5544 5558 5573 5587 5601 5615 5629 5642 5655 5668
5792 5783 5772 5761 5749 5736 5722 5707 5692 5675 5658 5641 5625 5609 5595 5582 5569 5558 5546 5536 5526 5518 5510 5504 5498 5494 5491 5489 5489 5489 5491 5496 5502 5512 5524 5538 5554 5569 5586 5601 5617 5631 5646
5784 5773 5762 5749 5736 5722 5707 5691 5675 5657 5639 5622 5605 5591 5577 5565 5552 5540 5529 5519 5509 5500 5491 5484 5478 5473 5470 5467 5466 5466 5467 5470 5475 5482 5493 5505 5519 5537 5554 5572 5589 5606 5621
5775 5763 5751 5738 5725 5710 5694 5677 5658 5640 5622 5605 5589 5575 5562 5550 5537 5525 5514 5503 5492 5483 5474 5466 5459 5453 5448 5446 5445 5445 5446 5447 5450 5456 5465 5475 5488 5504 5523 5542 5561 5578 5595
5765 5753 5741 5728 5713 5698 5681 5664 5645 5627 5609 5592 5576 5562 5548 5536 5523 5511 5499 5488 5477 5466 5456 5447 5439 5433 5428 5424 5424 5425 5427 5427 5429 5434 5440 5449 5460 5476 5494 5512 5531 5550 5569
5756 5744 5731 5717 5702 5686 5669 5651 5633 5614 5597 5580 5565 5550 5536 5523 5510 5498 5485 5473 5461 5450 5439 5428 5419 5412 5408 5403 5402 5404 5408 5410 5409 5414 5419 5426 5436 5450 5466 5482 5501 5521 5541
5747 5735 5721 5707 5691 5675 5657 5639 5620 5602 5585 5569 5554 5540 5525 5512 5498 5485 5472 5458 5445 5432 5420 5409 5399 5392 5387 5383 5380 5381 5385 5390 5393 5397 5400 5406 5415 5427 5440 5456 5473 5492 5513
5739 5726 5712 5697 5681 5664 5646 5628 5609 5592 5576 5560 5545 5530 5515 5501 5487 5473 5458 5444 5429 5415 5402 5390 5378 5369 5363 5360 5359 5359 5363 5369 5375 5380 5383 5389 5397 5406 5418 5432 5448 5467 5486
5731 5717 5702 5687 5670 5653 5635 5617 5599 5582 5565 5550 5535 5521 5506 5491 5476 5461 5446 5430 5415 5400 5385 5372 5359 5349 5341 5337 5337 5338 5342 5348 5355 5363 5369 5373 5380 5389 5399 5412 5427 5443 5461
5723 5708 5693 5677 5661 5643 5625 5607 5589 5573 5557 5542 5527 5513 5498 5483 5467 5451 5434 5418 5402 5387 5371 5357 5343 5332 5323 5318 5316 5318 5323 5330 5337 5346 5353 5359 5365 5373 5383 5394 5408 5423 5440